Regional Weather Roundup
Issued by NWS Jackson, KY

Home | Current Version | Previous Version | Text Only | Print | Product List | Glossary Off
Versions: 1 2 3 4 5 6 7 8 9 10 11 12 13 14 15 16 17 18 19 20 21 22 23 24 25 26 27 28 29 30 31 32 33 34 35 36 37 38 39 40 41 42 43 44 45 46 47 48 49 50

000
ASUS43 KJKL 240805
RWRJKL

EAST KENTUCKY HOURLY WEATHER ROUNDUP
NATIONAL WEATHER SERVICE JACKSON KY
400 AM EDT THU APR 24 2014

NOTE: "FAIR" INDICATES FEW OR NO CLOUDS BELOW 12,000 FEET WITH
NO SIGNIFICANT WEATHER AND/OR OBSTRUCTIONS TO VISIBILITY.

* THESE REPORTS ARE NOT UNDER NWS QUALITY CONTROL AND MAY NOT
  REPORT WEATHER SUCH AS PRECIPITATION AND FOG.

KYZ079-080-083-085-087-088-110-112-115-119-120-240900
...EASTERN KENTUCKY...

CITY           SKY/WX    TMP DP  RH WIND       PRES   REMARKS
JACKSON        CLEAR     47  30  51 VRB3      30.06R
LONDON         CLEAR     46  33  60 N5        30.04R
SOMERSET*      MOCLDY    45  32  61 CALM      30.04S
WILLIAMSBURG*  CLEAR     43  32  65 CALM      30.03R
MIDDLESBORO*   CLEAR     38  36  89 CALM      30.05R
HARLAN APT*    SUNNY     39  34  81 CALM      30.04R
BLACK MTN*       N/A     43  25  49 NE1         N/A
PIKEVILLE APT* CLEAR     45  30  57 NE5       30.06R
BIG SANDY*     SUNNY     44  32  63 NE5       30.07R
$$

KYZ035-036-041-042-044-050-067-078-099-240900
...CENTRAL KENTUCKY...

CITY           SKY/WX    TMP DP  RH WIND       PRES   REMARKS
MT STERLING*   CLOUDY    46  34  61 SE9       30.06F
FLEMING/MASON* CLOUDY    45  34  66 E7        30.07F
DANVILLE*      PTCLDY    41  34  75 CALM      30.05S
RICHMOND*      PTCLDY    45  34  65 E7        30.03F
LEXINGTON      MOCLDY    52  33  48 E10       30.04S
FRANKFORT      CLOUDY    49  35  58 E9        30.03S
$$

KYZ091>093-OHZ055-061-077-WVZ005-015-034-035-042-240900
...SOUTHERN OHIO/WEST VIRGINIA...

CITY           SKY/WX    TMP DP  RH WIND       PRES   REMARKS
COVINGTON      CLOUDY    50  34  54 E12       30.05S
COLUMBUS       CLOUDY    45  30  55 E3        30.10S
DAYTON         CLOUDY    47  31  53 E10       30.08S
WILMINGTON     CLOUDY    44  31  60 E7        30.07S
HUNTINGTON     CLEAR     44  33  65 NE6       30.09R
CHARLESTON     CLEAR     39  34  82 CALM      30.08S
PINEVILLE*     CLEAR     36  35  93 MISG      30.11R
BECKLEY        CLEAR     41  28  60 CALM      30.05S
BLUEFIELD      CLEAR     44  28  53 NE5       30.05S
$$

VAZ002-007-008-TNZ017-027-036-066-071-240900
...SOUTHWEST VIRGINIA/EAST TENNESSEE...

CITY           SKY/WX    TMP DP  RH WIND       PRES   REMARKS
WISE*          CLEAR     45  27  49 NE3       30.05R
ABINGDON*      CLEAR     41  29  62 CALM      30.03R
BRISTOL        CLEAR     37  29  72 CALM      30.03S
KNOXVILLE      CLEAR     46  33  60 N7        29.99R
OAK RIDGE      CLEAR     47  35  63 CALM      30.01S
CROSSVILLE     CLEAR     45  32  60 CALM      30.01R
NASHVILLE      CLEAR     48  37  65 CALM      29.98S
$$

...KEY TO REMARKS...
VSB - VISIBILITY IN MILES
WCI - WIND CHILL INDEX
HX  - HEAT INDEX

$$



USA.gov is the U.S. government's official web portal to all federal, state and local government web resources and services.